FW8022 Weather Reports


Display with metric or nautical units.
time (UTC)temp
F
wind
direction
speed
MPH
gust
MPH
rain 1hr
in
rain 24hr
in
rain mn
in
humidity
%
barometer
mb
20260506025538 56 224 2.0 4.0 0.00 0.16 0.13 89 1015.3
20260506025037 56 231 2.0 4.0 0.00 0.16 0.13 89 1015.3
20260506024545 56 232 2.0 4.0 0.00 0.16 0.13 88 1015.2
20260506024037 56 244 2.0 5.0 0.00 0.16 0.13 88 1015.2
20260506023538 56 214 2.0 5.0 0.00 0.16 0.13 88 1015.2
20260506023053 56 219 2.0 5.0 0.00 0.16 0.13 88 1015.1
20260506022537 56 218 3.0 7.0 0.00 0.16 0.13 88 1015.1
20260506022038 56 240 3.0 7.0 0.00 0.16 0.13 88 1015.0
20260506021555 56 252 3.0 7.0 0.00 0.16 0.13 88 1015.0
20260506021041 56 235 3.0 7.0 0.00 0.16 0.13 88 1015.1
20260506020539 56 236 3.0 7.0 0.00 0.16 0.13 88 1015.0
20260506020047 56 232 2.0 5.0 0.00 0.16 0.13 87 1015.1
20260506015538 56 239 2.0 7.0 0.00 0.16 0.13 87 1015.1
20260506015039 56 254 3.0 7.0 0.00 0.16 0.13 87 1015.1
20260506014552 56 246 3.0 7.0 0.00 0.16 0.13 87 1015.0
20260506014037 57 228 3.0 7.0 0.00 0.16 0.13 87 1015.0
20260506013537 57 225 3.0 6.0 0.00 0.16 0.13 87 1015.2
20260506013043 57 245 2.0 5.0 0.00 0.16 0.13 86 1015.1
20260506012537 57 234 2.0 6.0 0.00 0.16 0.13 87 1015.1
20260506012039 57 236 3.0 7.0 0.00 0.16 0.13 86 1015.1
20260506011552 57 250 3.0 7.0 0.00 0.16 0.13 86 1015.0
20260506011037 58 229 2.0 6.0 0.00 0.16 0.13 86 1015.0
20260506010537 58 216 2.0 6.0 0.00 0.16 0.13 85 1015.0
20260506005537 58 229 3.0 6.0 0.00 0.16 0.13 85 1015.0
20260506005037 58 250 2.0 6.0 0.00 0.16 0.13 85 1015.0
20260506004550 59 240 2.0 7.0 0.00 0.16 0.13 84 1014.9
20260506004038 58 232 2.0 7.0 0.00 0.16 0.13 85 1014.9
20260506003537 58 244 3.0 7.0 0.00 0.16 0.13 84 1014.8
20260506003044 59 221 2.0 7.0 0.00 0.16 0.13 83 1014.7
20260506002538 59 255 2.0 7.0 0.00 0.16 0.13 84 1014.7
20260506002038 58 240 3.0 7.0 0.00 0.16 0.13 84 1014.7
20260506001553 58 253 4.0 8.0 0.00 0.16 0.13 84 1014.7
20260506001038 58 225 3.0 8.0 0.00 0.16 0.13 85 1014.7
20260506000539 58 236 2.0 7.0 0.00 0.16 0.13 84 1014.7
20260506000052 59 242 3.0 7.0 0.00 0.16 0.13 84 1014.7
20260505235537 59 244 4.0 7.0 0.00 0.16 0.13 84 1014.7
20260505235037 59 223 4.0 7.0 0.00 0.16 0.13 84 1014.8
20260505234605 58 232 3.0 7.0 0.00 0.16 0.13 83 1014.7
20260505234040 58 246 3.0 6.0 0.00 0.16 0.13 84 1014.7
20260505233541 58 246 3.0 6.0 0.00 0.16 0.13 83 1014.7
20260505233049 58 219 3.0 6.0 0.00 0.16 0.13 83 1014.9
20260505232537 58 231 2.0 6.0 0.00 0.16 0.13 83 1014.9
20260505232040 58 276 2.0 6.0 0.00 0.16 0.13 83 1014.9
20260505231549 59 245 3.0 7.0 0.00 0.16 0.13 82 1014.9
20260505231036 59 271 3.0 7.0 0.00 0.16 0.13 82 1014.9
20260505230537 59 252 2.0 7.0 0.00 0.16 0.13 83 1014.9
20260505230044 59 281 3.0 7.0 0.00 0.16 0.13 83 1014.9
20260505225538 59 236 3.0 7.0 0.00 0.16 0.13 83 1014.8
20260505225039 59 249 3.0 7.0 0.00 0.16 0.13 82 1014.7
20260505224546 59 223 3.0 8.0 0.00 0.16 0.13 81 1014.7
20260505224040 60 244 3.0 8.0 0.00 0.16 0.13 81 1014.8
20260505223537 60 240 4.0 6.0 0.00 0.16 0.13 80 1014.8
20260505223043 60 257 3.0 9.0 0.00 0.16 0.13 80 1014.9
20260505222540 60 225 2.0 9.0 0.00 0.16 0.13 81 1014.8
20260505222036 60 229 3.0 9.0 0.00 0.16 0.13 80 1014.8
20260505221544 59 204 3.0 7.0 0.00 0.16 0.13 81 1014.8
20260505221037 59 210 3.0 7.0 0.00 0.16 0.13 82 1014.9
20260505220539 59 216 3.0 7.0 0.00 0.16 0.13 82 1014.8
20260505220042 59 244 2.0 7.0 0.00 0.16 0.13 80 1014.9
20260505215538 59 238 3.0 8.0 0.00 0.16 0.13 79 1015.0
20260505215039 60 250 3.0 8.0 0.00 0.16 0.13 78 1015.0
20260505214604 60 288 2.0 7.0 0.00 0.16 0.13 79 1015.0
20260505214037 60 238 2.0 7.0 0.00 0.16 0.13 80 1015.0
20260505213539 59 246 2.0 7.0 0.00 0.16 0.13 82 1015.1
20260505213057 58 242 3.0 8.0 0.00 0.16 0.13 81 1015.2
20260505212537 59 252 3.0 8.0 0.00 0.16 0.13 82 1015.2
20260505212037 59 276 3.0 10.0 0.00 0.16 0.13 83 1015.3
20260505211543 59 250 2.0 10.0 0.00 0.16 0.13 83 1015.3
20260505211038 59 265 4.0 9.0 0.00 0.16 0.13 83 1015.3
20260505210536 59 316 3.0 9.0 0.00 0.16 0.13 82 1015.2
20260505210049 59 308 5.0 9.0 0.00 0.16 0.13 83 1015.2
20260505205539 59 271 2.0 8.0 0.00 0.16 0.13 82 1015.2
20260505205040 59 258 4.0 8.0 0.00 0.16 0.13 80 1015.1
20260505204554 60 246 3.0 9.0 0.00 0.16 0.13 80 1015.1
20260505204037 60 265 4.0 9.0 0.00 0.16 0.13 80 1015.1
20260505203537 60 263 2.0 9.0 0.00 0.16 0.13 80 1015.1
20260505203047 59 247 3.0 9.0 0.00 0.16 0.13 81 1015.0
20260505202537 59 254 4.0 9.0 0.00 0.16 0.13 81 1015.0
20260505202037 59 277 3.0 6.0 0.00 0.16 0.13 82 1015.1
20260505201550 58 248 3.0 7.0 0.00 0.16 0.13 81 1015.1
20260505201037 59 252 3.0 7.0 0.00 0.16 0.13 82 1015.1
20260505200537 59 278 3.0 9.0 0.00 0.16 0.13 83 1015.1
20260505200058 58 257 3.0 9.0 0.00 0.16 0.13 82 1015.1
20260505195537 59 238 4.0 8.0 0.00 0.16 0.13 82 1015.1
20260505195037 59 294 3.0 9.0 0.00 0.16 0.13 82 1015.1
20260505194549 59 217 4.0 9.0 0.00 0.16 0.13 83 1015.2
20260505194039 58 291 3.0 8.0 0.00 0.16 0.13 83 1015.1
20260505193538 58 286 3.0 8.0 0.00 0.16 0.13 83 1015.1
20260505193049 58 268 3.0 8.0 0.00 0.16 0.13 84 1015.1
20260505192536 58 248 3.0 8.0 0.00 0.16 0.13 85 1015.1
20260505192037 58 279 3.0 9.0 0.00 0.16 0.13 85 1015.1
20260505191543 58 250 3.0 9.0 0.00 0.16 0.13 86 1015.1
20260505191037 57 286 4.0 9.0 0.00 0.16 0.13 87 1015.1
20260505190537 57 281 3.0 7.0 0.00 0.16 0.13 87 1015.0
20260505190049 57 281 2.0 7.0 0.00 0.16 0.13 87 1014.9
20260505185539 57 286 2.0 8.0 0.00 0.16 0.13 87 1014.9
20260505185037 56 295 2.0 8.0 0.00 0.16 0.13 87 1014.7
20260505184547 56 262 2.0 6.0 0.00 0.16 0.13 87 1014.9
20260505184037 57 264 2.0 7.0 0.00 0.16 0.13 87 1015.0
20260505183536 57 281 2.0 8.0 0.00 0.16 0.13 87 1015.0
20260505183054 57 271 3.0 8.0 0.00 0.16 0.13 87 1015.1
20260505182537 58 319 2.0 6.0 0.00 0.16 0.13 88 1015.1
20260505182037 57 292 2.0 6.0 0.00 0.16 0.13 89 1015.0
20260505181547 57 294 2.0 4.0 0.00 0.16 0.13 89 1014.7
20260505181040 57 296 2.0 4.0 0.00 0.16 0.13 90 1014.7
20260505180541 57 275 1.0 4.0 0.00 0.16 0.13 90 1014.7
20260505180105 56 245 2.0 7.0 0.00 0.16 0.13 90 1014.6
20260505175537 56 278 2.0 7.0 0.00 0.16 0.13 91 1014.6
20260505175037 56 286 2.0 6.0 0.00 0.16 0.13 91 1014.5
20260505174600 56 292 3.0 6.0 0.00 0.16 0.13 91 1014.5
20260505174037 55 290 2.0 6.0 0.00 0.16 0.13 92 1014.5
20260505173536 55 294 2.0 6.0 0.00 0.16 0.13 92 1014.5
20260505173046 55 284 2.0 4.0 0.00 0.16 0.13 92 1014.5
20260505172536 55 305 2.0 6.0 0.00 0.16 0.13 93 1014.5
20260505172036 55 306 1.0 6.0 0.00 0.16 0.13 93 1014.6
20260505171552 55 292 1.0 4.0 0.00 0.16 0.13 93 1014.4
20260505171041 55 294 2.0 6.0 0.00 0.16 0.13 93 1014.5
20260505170537 55 313 2.0 6.0 0.00 0.16 0.13 93 1014.4
20260505170044 55 323 2.0 6.0 0.00 0.16 0.13 93 1014.4
20260505165536 55 298 1.0 4.0 0.00 0.16 0.13 93 1014.5
20260505165037 55 294 0.0 3.0 0.00 0.16 0.13 93 1014.5
20260505164548 55 294 1.0 5.0 0.00 0.16 0.13 93 1014.5
20260505164037 55 313 1.0 6.0 0.00 0.16 0.13 93 1014.5
20260505163537 54 286 2.0 6.0 0.00 0.16 0.13 93 1014.4
20260505163052 54 255 2.0 5.0 0.01 0.16 0.13 93 1014.4
20260505162538 54 254 1.0 4.0 0.02 0.16 0.13 93 1014.4
20260505162037 54 269 1.0 4.0 0.02 0.16 0.13 93 1014.4
20260505161545 54 240 1.0 3.0 0.02 0.16 0.13 93 1014.3
20260505161037 54 240 1.0 3.0 0.02 0.16 0.13 93 1014.2
20260505160537 54 240 1.0 3.0 0.02 0.16 0.13 93 1014.2
20260505153043 53 286 2.0 5.0 0.01 0.15 0.12 91 1014.0
20260505152537 53 205 3.0 5.0 0.00 0.14 0.11 91 1014.0
20260505152036 53 229 2.0 5.0 0.00 0.14 0.11 91 1013.9
20260505151549 53 214 3.0 5.0 0.00 0.14 0.11 91 1013.8
20260505151037 53 232 2.0 5.0 0.00 0.14 0.11 91 1013.8
20260505150537 53 214 2.0 5.0 0.00 0.14 0.11 91 1013.6
20260505140538 53 223 1.0 3.0 0.00 0.14 0.11 91 1013.5
20260505125040 52 240 1.0 4.0 0.00 0.14 0.11 90 1013.2
20260505124547 52 246 1.0 4.0 0.00 0.14 0.11 90 1013.2
20260505124042 52 244 2.0 4.0 0.00 0.14 0.11 90 1013.2
20260505123538 52 242 2.0 4.0 0.00 0.14 0.11 90 1013.1
20260505123100 52 261 2.0 4.0 0.00 0.14 0.11 90 1013.1
20260505122539 52 238 1.0 3.0 0.00 0.14 0.11 90 1013.1
20260505122040 52 238 1.0 3.0 0.00 0.14 0.11 91 1013.1
20260505121549 52 204 0.0 2.0 0.00 0.14 0.11 91 1013.0
20260505121039 52 204 1.0 3.0 0.00 0.14 0.11 90 1013.0
20260505120537 52 0 0.0 3.0 0.00 0.14 0.11 90 1013.0
20260505120053 52 204 1.0 4.0 0.00 0.14 0.11 90 1013.1
20260505115538 51 0 1.0 4.0 0.00 0.14 0.11 90 1013.1
20260505115039 51 204 2.0 4.0 0.00 0.14 0.11 90 1013.0
20260505114544 51 207 2.0 3.0 0.00 0.14 0.11 90 1013.1
20260505114042 51 232 1.0 2.0 0.00 0.14 0.11 90 1013.2
20260505113542 51 232 1.0 2.0 0.00 0.14 0.11 90 1013.3
20260505113044 51 260 0.0 2.0 0.00 0.14 0.11 90 1013.3
20260505112539 51 260 0.0 2.0 0.00 0.14 0.11 90 1013.4
20260505112038 51 260 1.0 2.0 0.00 0.14 0.11 90 1013.2
20260505111544 51 260 0.0 2.0 0.00 0.14 0.11 91 1013.2
20260505111039 51 0 1.0 4.0 0.00 0.14 0.11 91 1013.2
20260505110538 51 260 0.0 5.0 0.00 0.14 0.11 91 1013.2
20260505110158 51 300 1.0 5.0 0.00 0.14 0.11 91 1013.3
20260505102037 51 284 1.0 5.0 0.01 0.14 0.11 92 1013.2
20260505101548 51 263 1.0 4.0 0.01 0.14 0.11 92 1013.2
20260505101038 51 262 2.0 4.0 0.01 0.14 0.11 92 1013.4
20260505100537 51 280 1.0 4.0 0.01 0.14 0.11 92 1013.4
20260505100053 52 300 1.0 3.0 0.01 0.14 0.11 92 1013.4
20260505095538 52 275 1.0 3.0 0.01 0.14 0.11 92 1013.5
20260505095038 52 286 1.0 3.0 0.01 0.14 0.11 93 1013.4
20260505094545 52 0 1.0 4.0 0.02 0.14 0.11 93 1013.5
20260505094038 52 0 0.0 4.0 0.02 0.14 0.11 93 1013.5
20260505093538 52 228 1.0 5.0 0.03 0.14 0.11 93 1013.5
20260505093051 52 252 2.0 5.0 0.04 0.14 0.11 93 1013.6
20260505092538 52 0 0.0 2.0 0.04 0.13 0.10 93 1013.7
20260505092039 51 195 1.0 2.0 0.04 0.13 0.10 92 1013.8
20260505091606 51 195 0.0 3.0 0.04 0.13 0.10 92 1013.8
20260505091037 51 195 1.0 3.0 0.05 0.13 0.10 92 1013.9
20260505090538 51 195 2.0 3.0 0.06 0.13 0.10 92 1013.9
20260505090047 51 195 0.0 3.0 0.07 0.13 0.10 92 1013.9
20260505085541 51 0 1.0 3.0 0.08 0.13 0.10 92 1014.0
20260505085039 51 195 0.0 2.0 0.09 0.13 0.10 92 1013.9
20260505084545 51 0 0.0 2.0 0.08 0.12 0.09 92 1013.9
20260505084038 51 195 1.0 2.0 0.08 0.12 0.09 91 1013.8
20260505083538 51 0 0.0 3.0 0.07 0.11 0.08 91 1013.8
20260505083044 51 0 1.0 4.0 0.06 0.09 0.06 91 1013.9
20260505082538 51 0 1.0 4.0 0.06 0.09 0.06 91 1013.9
20260505082039 51 195 3.0 4.0 0.06 0.09 0.06 91 1013.9
20260505081555 51 195 1.0 2.0 0.06 0.09 0.06 90 1013.9
20260505081038 51 0 0.0 2.0 0.05 0.08 0.05 90 1014.2
20260505080541 51 0 0.0 2.0 0.04 0.07 0.04 90 1014.2
20260505075539 51 195 1.0 3.0 0.02 0.05 0.02 90 1014.1
20260505075036 51 195 2.0 3.0 0.01 0.04 0.01 90 1014.2
20260505074548 51 180 1.0 2.0 0.02 0.04 0.01 90 1014.3
20260505074036 51 0 0.0 0.0 0.02 0.04 0.01 89 1014.4
20260505073537 51 0 0.0 1.0 0.02 0.04 0.01 89 1014.5
20260505073048 51 0 0.0 1.0 0.01 0.03 0.00 89 1014.5
20260505072537 51 0 0.0 2.0 0.01 0.03 0.00 89 1014.5
20260505072036 51 0 0.0 2.0 0.01 0.03 0.00 89 1014.5
20260505071554 51 0 0.0 2.0 0.01 0.03 0.00 88 1014.5
20260505071035 52 0 0.0 2.0 0.01 0.03 0.00 88 1014.5
20260505070537 52 261 0.0 2.0 0.01 0.03 0.00 88 1014.4
20260505070049 51 0 0.0 3.0 0.01 0.03 0.00 88 1014.3
20260505065536 51 0 1.0 3.0 0.02 0.03 0.03 88 1014.3
20260505065037 51 252 0.0 4.0 0.02 0.03 0.03 88 1014.3
20260505064543 51 248 1.0 4.0 0.01 0.02 0.02 88 1014.2
20260505064036 51 274 1.0 4.0 0.01 0.02 0.02 88 1014.2
20260505063536 51 294 0.0 5.0 0.01 0.02 0.02 88 1014.1
20260505063053 51 273 1.0 6.0 0.01 0.02 0.02 88 1014.1
20260505062536 51 343 2.0 6.0 0.01 0.02 0.02 87 1014.1
20260505062035 51 289 2.0 6.0 0.02 0.02 0.02 88 1014.0
20260505061612 52 281 1.0 5.0 0.02 0.02 0.02 88 1014.2
20260505061036 52 288 1.0 4.0 0.02 0.02 0.02 88 1014.2
20260505060536 52 285 1.0 4.0 0.02 0.02 0.02 88 1014.2
20260505060055 52 311 1.0 3.0 0.02 0.02 0.02 87 1014.2
20260505055537 52 355 1.0 3.0 0.01 0.01 0.01 87 1014.1
20260505055041 52 323 1.0 3.0 0.01 0.01 0.01 87 1014.1
20260505054548 52 292 1.0 6.0 0.01 0.01 0.01 87 1014.1
20260505054037 52 340 1.0 6.0 0.01 0.01 0.01 87 1014.1
20260505053537 52 309 1.0 5.0 0.01 0.01 0.01 86 1014.1
20260505053045 52 301 0.0 7.0 0.01 0.01 0.01 86 1014.1
20260505052536 52 291 2.0 7.0 0.01 0.01 0.01 86 1014.2
20260505052037 53 293 1.0 7.0 0.00 0.00 0.00 86 1014.2
20260505051606 53 333 2.0 7.0 0.00 0.00 0.00 85 1014.4
20260505051037 53 339 1.0 7.0 0.00 0.00 0.00 85 1014.6
20260505050537 53 346 1.0 7.0 0.00 0.00 0.00 84 1014.7
20260505041548 53 0 2.0 5.0 0.00 0.00 0.00 83 1014.4
20260505041038 53 329 1.0 9.0 0.00 0.00 0.00 83 1014.3
20260505040538 54 336 1.0 9.0 0.00 0.00 0.00 84 1014.2
20260505040044 54 0 3.0 9.0 0.00 0.00 0.00 84 1014.1
20260505035537 54 335 2.0 7.0 0.00 0.00 0.00 84 1013.8
20260505035037 54 0 1.0 5.0 0.00 0.00 0.00 84 1013.8
20260505034539 54 280 2.0 6.0 0.00 0.00 0.00 84 1013.8
20260505034038 54 323 1.0 7.0 0.00 0.00 0.00 85 1013.7
20260505033538 54 327 2.0 7.0 0.00 0.00 0.00 85 1013.7
20260505033046 54 0 2.0 6.0 0.00 0.00 0.00 86 1013.7
20260505032537 54 328 2.0 6.0 0.00 0.00 0.00 86 1013.6
20260505032037 54 292 2.0 7.0 0.00 0.00 0.00 86 1013.6
20260505031553 54 271 1.0 7.0 0.00 0.00 0.00 86 1013.6
20260505031037 54 276 1.0 6.0 0.00 0.00 0.00 87 1013.6
20260505030541 54 323 2.0 6.0 0.00 0.00 0.00 87 1013.7
20260505030055 55 52 1.0 5.0 0.00 0.00 0.00 87 1013.6